This is the latest recevied weather packets stored in our database for station/object KV4OP. If no packets are shown the sender has not sent any weather packets the latest 10 day(s).
| Time | Temp. | Humidity | Pressure | Rain* | Wind** | Luminosity | Snow |
|---|---|---|---|---|---|---|---|
| 1788202232 | 26.67° C | 87% | 1017.7 hPa | 3.56 mm | - | - | - |
| 1788201932 | 26.11° C | 86% | 1017.5 hPa | 7.37 mm | - | - | - |
| 1788201641 | 26.11° C | 87% | 1017.6 hPa | 13.21 mm | - | - | - |
| 1788201334 | 25.56° C | 87% | 1017.7 hPa | 16.26 mm | - | - | - |
| 1788201033 | 25.56° C | 87% | 1017.7 hPa | 18.29 mm | - | - | - |
| 1788200732 | 26.11° C | 87% | 1017.7 hPa | 18.54 mm | - | - | - |
| 1788200441 | 25.56° C | 87% | 1017.7 hPa | 19.3 mm | - | - | - |
| 1788200133 | 25.56° C | 87% | 1017.8 hPa | 19.56 mm | - | - | - |
| 1788199833 | 25.56° C | 87% | 1017.9 hPa | 19.56 mm | - | - | - |
| 1788199533 | 25.56° C | 87% | 1017.7 hPa | 19.05 mm | - | - | - |
| 1788199243 | 25.56° C | 86% | 1017.9 hPa | 18.54 mm | - | - | - |
| 1788198933 | 25.56° C | 86% | 1018.1 hPa | 17.78 mm | - | - | - |
| 1788198635 | 25.56° C | 86% | 1018.2 hPa | 16.51 mm | - | - | - |
| 1788198333 | 26.11° C | 84% | 1018.4 hPa | 12.7 mm | - | - | - |
| 1788198043 | 26.67° C | 84% | 1018.7 hPa | 6.6 mm | - | - | - |
| 1788197733 | 26.67° C | 82% | 1018.5 hPa | 4.06 mm | - | - | - |
| 1788197433 | 27.22° C | 81% | 1018.4 hPa | 1.78 mm | - | - | - |
| 1788197133 | 27.78° C | 77% | 1018.1 hPa | 1.27 mm | - | - | - |
| 1788196842 | 29.44° C | 75% | 1017.9 hPa | 0.51 mm | - | - | - |
| 1788196533 | 30° C | 72% | 1017.9 hPa | 0 mm | - | - | - |
| 1788196233 | 30.56° C | 75% | 1017.7 hPa | 0 mm | - | - | - |
| 1788195933 | 31.11° C | 72% | 1017.7 hPa | 0 mm | - | - | - |
| 1788195642 | 30.56° C | 71% | 1017.7 hPa | 0 mm | - | - | - |
| 1788195333 | 31.67° C | 72% | 1017.7 hPa | 0 mm | - | - | - |
| 1788195033 | 32.22° C | 69% | 1017.7 hPa | 0 mm | - | - | - |
* Rain latest hour (hover to see other rain measurements)
** Current wind speed in m/s (hover to see current wind gust speed)